Location: Klinovec
(50.3970°N, 12.9600°E)
Time: 02:49:05
(UTC+01:00)

N. Korean satellite - Pass Details

Date: 16 November 2019
Orbit: 455 x 506 km, 97.2° (Epoch: 12 December)

Event Time Altitude Azimuth Distance (km) Brightness Sun altitude
Rises 05:15:05 0° 24° (NNE) 2,625 10.5 -20.2°
Reaches altitude 10° 05:17:34 10° 41° (NE) 1,732 9.8 -19.8°
Maximum altitude 05:20:30 22° 93° (E) 1,163 9.4 -19.4°
Drops below altitude 10° 05:23:23 10° 144° (SE) 1,708 9.9 -18.9°
Sets 05:25:49 0° 161° (SSE) 2,579 10.6 -18.5°
